sat.trackr.live / text

‹ back to catalog

STARLINK-6343

NORAD 57362 · 2023-099AL

PAYLOAD ACTIVE UNKNOWN

§ Identity

Operator
Country
US
Launch date
2023-07-16
Launch site
AFETR
Launch vehicle
Mass (kg)
RCS (m²)

Purposes: comms

External: N2YO · Heavens-Above · Gunter

§ Orbital elements

Epoch: 2026-09-19T07:21:34.243776Z

Period
94.27 min
Inclination
43.0028°
Eccentricity
0.0001520
Mean motion
15.27573104 rev/d
Perigee alt
482.0 km
Apogee alt
484.1 km
Semi-major
6,861.2 km
B*
1.3452e-5
RAAN
227.9666°
Arg perigee
275.1690°
Mean anomaly
84.8989°
Rev number
17,580

§ Raw data

STARLINK-63431 57362U 23099AL  26262.30664634  .00000108  00000+0  13452-4 0  99932 57362  43.0028 227.9666 0001520 275.1690  84.8989 15.27573104175800

JSON: /api/v1/satellites/57362 · /tle

For live sub-satellite position, see the globe view (requires WebGL).

§ Visibility from observer

Set your observer location to see the next 7 days of passes ≥ 10°. The values pass through the URL so the page stays shareable.

No JS? Fill the form by hand. The geolocation button needs JavaScript.